Hourly Weather Klejnowko

Today, 25 July, Sunday

Time Temperature Precipitation Wind Pressure Humidity
00:00 +17°C° 0 mm 3 mps 761 mmHg 76%
01:00 +17°C° 0 mm 3 mps 761 mmHg 77%
02:00 +17°C° 0 mm 3 mps 761 mmHg 79%
03:00 +17°C° 0 mm 3 mps 761 mmHg 80%
04:00 +17°C° 0 mm 3 mps 761 mmHg 82%
05:00 +18°C° 0 mm 3 mps 761 mmHg 78%
06:00 +20°C° 0 mm 4 mps 761 mmHg 73%
07:00 +22°C° 0 mm 4 mps 761 mmHg 68%
08:00 +23°C° 0 mm 4 mps 761 mmHg 63%
09:00 +26°C° 0 mm 4 mps 761 mmHg 59%
10:00 +27°C° 0 mm 5 mps 761 mmHg 54%
11:00 +28°C° 0 mm 5 mps 760 mmHg 51%
12:00 +29°C° 0 mm 4 mps 760 mmHg 49%
13:00 +30°C° 0 mm 4 mps 760 mmHg 46%
14:00 +29°C° 0 mm 4 mps 760 mmHg 49%
15:00 +29°C° 0 mm 4 mps 760 mmHg 52%
16:00 +29°C° 0 mm 3 mps 760 mmHg 54%
17:00 +27°C° 0.1 mm 4 mps 760 mmHg 63%
18:00 +25°C° 0.1 mm 4 mps 760 mmHg 71%
19:00 +21°C° 0.1 mm 4 mps 760 mmHg 80%
20:00 +21°C° 0 mm 4 mps 760 mmHg 80%
21:00 +21°C° 0 mm 5 mps 760 mmHg 80%
22:00 +20°C° 0 mm 5 mps 760 mmHg 80%
23:00 +20°C° 0 mm 4 mps 760 mmHg 79%

Tomorrow, 26 July, Monday

Time Temperature Precipitation Wind Pressure Humidity
00:00 +20°C° 0 mm 4 mps 760 mmHg 78%
01:00 +20°C° 0 mm 4 mps 760 mmHg 77%
02:00 +20°C° 0 mm 4 mps 760 mmHg 79%
03:00 +19°C° 0 mm 4 mps 760 mmHg 81%
04:00 +19°C° 0 mm 4 mps 760 mmHg 83%
05:00 +20°C° 0 mm 4 mps 760 mmHg 79%
06:00 +20°C° 0 mm 4 mps 760 mmHg 76%
07:00 +21°C° 0 mm 3 mps 760 mmHg 72%
08:00 +22°C° 0 mm 4 mps 760 mmHg 69%
09:00 +23°C° 0 mm 5 mps 760 mmHg 66%
10:00 +25°C° 0 mm 5 mps 760 mmHg 62%
11:00 +27°C° 0 mm 5 mps 760 mmHg 57%
12:00 +29°C° 0 mm 6 mps 759 mmHg 51%
13:00 +30°C° 0 mm 6 mps 759 mmHg 46%
14:00 +29°C° 0.1 mm 6 mps 759 mmHg 51%
15:00 +28°C° 0.1 mm 5 mps 759 mmHg 57%
16:00 +27°C° 0.1 mm 5 mps 758 mmHg 63%
17:00 +26°C° 0.3 mm 6 mps 758 mmHg 70%
18:00 +23°C° 0.3 mm 6 mps 758 mmHg 78%
19:00 +22°C° 0.3 mm 6 mps 758 mmHg 85%
20:00 +21°C° 0.2 mm 6 mps 758 mmHg 87%
21:00 +21°C° 0.2 mm 6 mps 758 mmHg 88%
22:00 +20°C° 0.2 mm 5 mps 758 mmHg 90%
23:00 +20°C° 0.4 mm 5 mps 758 mmHg 92%

Day after tomorrow, 27 July, Tuesday

Time Temperature Precipitation Wind Pressure Humidity
00:00 +20°C° 0.4 mm 5 mps 758 mmHg 94%
01:00 +19°C° 0.4 mm 4 mps 758 mmHg 96%
02:00 +19°C° 0 mm 4 mps 758 mmHg 95%
03:00 +19°C° 0 mm 4 mps 757 mmHg 94%
04:00 +19°C° 0 mm 3 mps 757 mmHg 94%
05:00 +19°C° 0 mm 3 mps 757 mmHg 93%
06:00 +20°C° 0 mm 3 mps 757 mmHg 92%
07:00 +21°C° 0 mm 3 mps 757 mmHg 91%
08:00 +21°C° 0.1 mm 2 mps 757 mmHg 87%
09:00 +23°C° 0.1 mm 2 mps 757 mmHg 83%
10:00 +24°C° 0.1 mm 1 mps 757 mmHg 80%
11:00 +25°C° 0.5 mm 1 mps 757 mmHg 78%
12:00 +26°C° 0.5 mm 1 mps 757 mmHg 76%
13:00 +26°C° 0.5 mm 2 mps 757 mmHg 73%
14:00 +26°C° 0.5 mm 2 mps 757 mmHg 75%
15:00 +26°C° 0.5 mm 3 mps 757 mmHg 77%
16:00 +25°C° 0.5 mm 4 mps 757 mmHg 78%
17:00 +23°C° 1.1 mm 4 mps 757 mmHg 83%
18:00 +22°C° 1.1 mm 3 mps 758 mmHg 87%
19:00 +21°C° 1.1 mm 2 mps 758 mmHg 91%
20:00 +20°C° 0 mm 3 mps 758 mmHg 91%
21:00 +20°C° 0 mm 3 mps 758 mmHg 90%
22:00 +20°C° 0 mm 3 mps 758 mmHg 90%
23:00 +19°C° 0 mm 3 mps 758 mmHg 90%

28 July, Wednesday

Time Temperature Precipitation Wind Pressure Humidity
00:00 +19°C° 0 mm 3 mps 758 mmHg 91%
01:00 +19°C° 0 mm 4 mps 758 mmHg 91%
02:00 +18°C° 0 mm 3 mps 758 mmHg 91%
03:00 +18°C° 0 mm 3 mps 758 mmHg 91%
04:00 +18°C° 0 mm 3 mps 758 mmHg 90%
05:00 +19°C° 0 mm 3 mps 758 mmHg 87%
06:00 +21°C° 0 mm 3 mps 758 mmHg 83%
07:00 +22°C° 0 mm 3 mps 758 mmHg 80%
08:00 +24°C° 0.1 mm 3 mps 758 mmHg 73%
09:00 +26°C° 0.1 mm 4 mps 758 mmHg 67%
10:00 +27°C° 0.1 mm 4 mps 758 mmHg 60%
11:00 +28°C° 0 mm 3 mps 758 mmHg 56%
12:00 +28°C° 0 mm 3 mps 758 mmHg 52%
13:00 +29°C° 0 mm 2 mps 757 mmHg 48%
14:00 +28°C° 0 mm 2 mps 757 mmHg 53%
15:00 +27°C° 0 mm 2 mps 757 mmHg 57%
16:00 +26°C° 0 mm 2 mps 757 mmHg 61%
17:00 +25°C° 0 mm 2 mps 757 mmHg 65%
18:00 +24°C° 0 mm 2 mps 757 mmHg 69%
19:00 +24°C° 0 mm 3 mps 757 mmHg 74%
20:00 +22°C° 0 mm 3 mps 758 mmHg 75%
21:00 +22°C° 0 mm 3 mps 758 mmHg 77%
22:00 +21°C° 0 mm 3 mps 758 mmHg 79%
23:00 +21°C° 0.1 mm 3 mps 758 mmHg 80%

29 July, Thursday

Time Temperature Precipitation Wind Pressure Humidity
00:00 +20°C° 0.1 mm 4 mps 758 mmHg 82%
01:00 +20°C° 0.1 mm 4 mps 759 mmHg 84%
02:00 +19°C° 0 mm 4 mps 759 mmHg 86%
03:00 +18°C° 0 mm 4 mps 759 mmHg 87%
04:00 +18°C° 0 mm 4 mps 759 mmHg 89%
05:00 +19°C° 0 mm 4 mps 759 mmHg 84%
06:00 +20°C° 0 mm 4 mps 759 mmHg 80%
07:00 +21°C° 0 mm 4 mps 759 mmHg 75%
08:00 +22°C° 0 mm 4 mps 760 mmHg 70%
09:00 +23°C° 0 mm 4 mps 760 mmHg 65%
10:00 +25°C° 0 mm 4 mps 760 mmHg 59%
11:00 +26°C° 0 mm 3 mps 760 mmHg 56%
12:00 +26°C° 0 mm 2 mps 759 mmHg 53%
13:00 +27°C° 0 mm 2 mps 759 mmHg 49%
14:00 +27°C° 0 mm 2 mps 759 mmHg 51%
15:00 +27°C° 0 mm 2 mps 759 mmHg 53%
16:00 +26°C° 0 mm 2 mps 758 mmHg 55%
17:00 +25°C° 0 mm 2 mps 758 mmHg 59%
18:00 +25°C° 0 mm 2 mps 758 mmHg 62%
19:00 +24°C° 0 mm 2 mps 758 mmHg 66%
20:00 +23°C° 0 mm 2 mps 758 mmHg 66%
21:00 +23°C° 0 mm 2 mps 758 mmHg 66%
22:00 +22°C° 0 mm 3 mps 758 mmHg 65%
23:00 +21°C° 0 mm 3 mps 757 mmHg 66%

30 July, Friday

Time Temperature Precipitation Wind Pressure Humidity
00:00 +21°C° 0 mm 3 mps 757 mmHg 66%
01:00 +21°C° 0 mm 4 mps 757 mmHg 67%
02:00 +21°C° 0 mm 3 mps 757 mmHg 67%
03:00 +21°C° 0 mm 3 mps 757 mmHg 67%
04:00 +21°C° 0 mm 3 mps 757 mmHg 67%
05:00 +21°C° 0 mm 4 mps 757 mmHg 69%
06:00 +22°C° 0 mm 4 mps 756 mmHg 70%
07:00 +22°C° 0 mm 4 mps 756 mmHg 72%
08:00 +23°C° 0 mm 5 mps 756 mmHg 66%
09:00 +26°C° 0 mm 5 mps 755 mmHg 61%
10:00 +27°C° 0 mm 5 mps 755 mmHg 56%
11:00 +28°C° 0 mm 5 mps 755 mmHg 57%
12:00 +28°C° 0 mm 5 mps 754 mmHg 57%
13:00 +28°C° 0 mm 4 mps 754 mmHg 58%
14:00 +27°C° 0.1 mm 5 mps 754 mmHg 61%
15:00 +27°C° 0.1 mm 5 mps 753 mmHg 65%
16:00 +26°C° 0.1 mm 6 mps 753 mmHg 69%
17:00 +25°C° 0.8 mm 5 mps 753 mmHg 77%
18:00 +22°C° 0.8 mm 4 mps 754 mmHg 84%
19:00 +20°C° 0.8 mm 4 mps 754 mmHg 92%
20:00 +20°C° 0 mm 4 mps 754 mmHg 91%
21:00 +20°C° 0 mm 4 mps 754 mmHg 90%
22:00 +19°C° 0 mm 4 mps 755 mmHg 89%
23:00 +19°C° 0.1 mm 4 mps 755 mmHg 89%
Show more